Location: Wildlife_Club
(35.6000°N, 81.4330°W)
Time: 21:06:52
(UTC-04:00)

Vanguard 2 Rocket - Pass Details

Date: 23 June 2019
Orbit: 553 x 3327 km, 32.9° (Epoch: 18 August)

Event Time Altitude Azimuth Distance (km) Brightness Sun altitude
Rises 00:58:47 0° 268° (W) 4,434 10.5 -30.6°
Reaches altitude 10° 01:01:12 10° 267° (W) 3,738 10.0 -30.6°
Maximum altitude 01:11:40 80° 182° (S) 2,303 8.6 -30.8°
Drops below altitude 10° 01:29:43 10° 100° (E) 6,056 11.0 -31.0°
Sets 01:34:53 0° 99° (E) 7,242 11.4 -30.9°
